This demonstration page uses our WeatherBlox Daily Observations layout. Learn more.

Left ArrowRight Arrow

53.62937, 11.41316

Hourly Observations for July 18, 2022

Temp ( °F °C ) Dew Point ( °F °C ) Humidity (%) Winds ( mph kmh ) Pressure ( in mb ) Visibility ( mi km ) Precip ( " mm )
12:20 am 00:20 Partly Cloudy 57 14 54 12 88 88 SW 2 4 30.27 1025 30 48 N/A
12:50 am 00:50 Mostly Clear 55 13 54 12 94 94 VRB 2 4 30.27 1025 30 48 N/A
1:20 am 01:20 Mostly Clear 55 13 54 12 94 94 VRB 2 4 30.27 1025 30 48 N/A
1:50 am 01:50 Mostly Clear 55 13 54 12 94 94 VRB 2 4 30.27 1025 30 48 N/A
2:20 am 02:20 Mostly Clear 55 13 54 12 94 94 VRB 2 4 30.27 1025 30 48 N/A
2:50 am 02:50 Mostly Cloudy 55 13 54 12 94 94 VRB 1 2 30.27 1025 30 48 N/A
3:20 am 03:20 Mostly Clear 55 13 52 11 88 88 VRB 1 2 30.27 1025 30 48 N/A
3:50 am 03:50 Mostly Clear 55 13 52 11 88 88 VRB 2 4 30.27 1025 30 48 N/A
4:20 am 04:20 Mostly Clear 55 13 52 11 88 88 VRB 2 4 30.27 1025 30 48 N/A
4:50 am 04:50 Mostly Cloudy 55 13 52 11 88 88 VRB 2 4 30.24 1024 30 48 N/A
5:20 am 05:20 Mostly Sunny 54 12 50 10 88 88 Calm 30.24 1024 30 48 N/A
5:50 am 05:50 Partly Cloudy 57 14 52 11 82 82 VRB 2 4 30.24 1024 30 48 N/A
6:20 am 06:20 Mostly Sunny 57 14 52 11 82 82 VRB 2 4 30.24 1024 7 11 N/A
6:50 am 06:50 Mostly Sunny 57 14 52 11 82 82 VRB 2 4 30.24 1024 7 11 N/A
7:20 am 07:20 Mostly Sunny 59 15 54 12 82 82 VRB 2 4 30.24 1024 7 11 N/A
7:50 am 07:50 Mostly Sunny 61 16 52 11 72 72 S 5 7 30.24 1024 7 11 N/A
8:20 am 08:20 Mostly Sunny 63 17 54 12 73 73 S 3 6 30.24 1024 7 11 N/A
8:50 am 08:50 Mostly Sunny 63 17 54 12 73 73 S 5 7 30.24 1024 7 11 N/A
9:20 am 09:20 Mostly Sunny 64 18 55 13 73 73 SSW 5 7 30.24 1024 7 11 N/A
9:50 am 09:50 Mostly Sunny 68 20 55 13 64 64 VRB 3 6 30.24 1024 7 11 N/A
10:20 am 10:20 Mostly Sunny 70 21 55 13 60 60 VRB 3 6 30.24 1024 7 11 N/A
10:50 am 10:50 Mostly Sunny 72 22 55 13 57 57 VRB 5 7 30.21 1023 7 11 N/A
11:20 am 11:20 Mostly Sunny 73 23 55 13 53 53 S 6 9 30.21 1023 7 11 N/A
11:50 am 11:50 Mostly Sunny 73 23 55 13 53 53 VRB 6 9 30.21 1023 7 11 N/A
12:20 pm 12:20 Mostly Sunny 75 24 55 13 50 50 VRB 5 7 30.21 1023 7 11 N/A
12:50 pm 12:50 Mostly Sunny 77 25 55 13 47 47 VRB 5 7 30.21 1023 7 11 N/A
1:20 pm 13:20 Mostly Sunny 79 26 54 12 42 42 VRB 6 9 30.21 1023 7 11 N/A
1:50 pm 13:50 Mostly Sunny 77 25 52 11 42 42 SSW 6 9 30.21 1023 7 11 N/A
2:20 pm 14:20 Mostly Sunny 77 25 52 11 42 42 VRB 5 7 30.18 1022 7 11 N/A
2:50 pm 14:50 Mostly Sunny 77 25 54 12 44 44 VRB 5 7 30.18 1022 7 11 N/A
3:20 pm 15:20 Mostly Sunny 79 26 54 12 42 42 VRB 5 7 30.18 1022 7 11 N/A
3:50 pm 15:50 Mostly Sunny 77 25 52 11 42 42 VRB 3 6 30.18 1022 7 11 N/A
4:20 pm 16:20 Mostly Sunny 79 26 54 12 42 42 VRB 3 6 30.15 1021 7 11 N/A
4:50 pm 16:50 Mostly Sunny 82 28 54 12 37 37 VRB 6 9 30.15 1021 7 11 N/A
5:20 pm 17:20 Mostly Sunny 81 27 54 12 39 39 SSW 5 7 30.15 1021 7 11 N/A
5:50 pm 17:50 Mostly Sunny 82 28 54 12 37 37 W 7 11 30.15 1021 7 11 N/A
6:20 pm 18:20 Mostly Sunny 82 28 52 11 35 35 VRB 5 7 30.12 1020 7 11 N/A
6:50 pm 18:50 Mostly Sunny 82 28 52 11 35 35 W 8 13 30.12 1020 7 11 N/A
7:20 pm 19:20 Mostly Sunny 81 27 52 11 37 37 W 6 9 30.12 1020 7 11 N/A
7:50 pm 19:50 Mostly Sunny 79 26 54 12 42 42 W 3 6 30.12 1020 7 11 N/A
8:20 pm 20:20 Mostly Sunny 79 26 55 13 45 45 VRB 2 4 30.12 1020 7 11 N/A
8:50 pm 20:50 Mostly Sunny 75 24 57 14 54 54 VRB 2 4 30.12 1020 7 11 N/A
9:20 pm 21:20 Mostly Sunny 72 22 54 12 53 53 Calm 30.12 1020 30 48 N/A
9:50 pm 21:50 Mostly Clear 70 21 55 13 60 60 VRB 2 4 30.12 1020 30 48 N/A
10:20 pm 22:20 Mostly Clear 66 19 57 14 73 73 Calm 30.12 1020 30 48 N/A
10:50 pm 22:50 Mostly Clear 63 17 55 13 77 77 Calm 30.12 1020 30 48 N/A
11:20 pm 23:20 Mostly Clear 63 17 55 13 77 77 SSE 2 4 30.12 1020 30 48 N/A
11:50 pm 23:50 Mostly Clear 61 16 55 13 83 83 Calm 30.12 1020 30 48 N/A

Powered by AerisWeather